Wind_Speed
53 53 52 53 53 52 52 51 50 49 48 47 47 45 44 44 44 44 44 44 44 44 44 44 44 43 43 42 41 41 42 43 43 44 44 43 42 42
51 52 53 54 54 54 54 52 51 51 48 46 46 45 45 45 45 45 46 47 47 46 45 44 44 44 43 42 43 42 42 43 43 44 43 42 42 41
51 52 53 54 54 54 53 53 53 51 49 47 46 47 49 49 49 49 49 49 49 48 47 46 45 45 43 43 43 42 42 43 43 42 42 42 41 40
49 50 51 52 53 52 52 54 54 53 52 51 50 51 52 52 51 51 51 50 50 49 48 47 46 45 44 44 43 43 43 43 42 42 42 41 40 39
48 49 49 50 50 51 52 53 54 54 55 55 54 54 54 54 54 53 52 51 51 50 49 48 46 45 45 45 44 43 42 42 42 41 41 40 39 37
50 50 50 50 50 51 53 54 54 55 56 56 56 56 56 56 56 55 54 53 51 50 49 48 47 46 45 45 43 42 41 41 41 40 39 39 38 36
51 52 52 52 53 53 54 55 56 57 57 58 58 58 58 57 56 55 54 53 52 51 49 48 47 46 44 43 41 40 40 40 39 39 38 37 36 34
53 53 54 54 56 57 58 58 59 59 59 60 60 60 59 58 57 56 55 54 52 50 48 47 45 44 43 41 40 39 39 39 38 38 37 36 34 32
57 57 58 58 59 60 61 62 62 62 61 61 61 60 59 58 57 56 54 52 50 49 48 46 45 43 41 40 39 39 39 38 38 37 36 35 32 30
60 60 61 62 62 62 62 62 61 61 60 60 59 58 58 58 56 53 51 50 49 48 47 45 44 43 41 40 40 39 38 38 37 36 34 33 31 29
62 62 63 63 63 62 62 61 61 61 60 59 58 57 56 56 55 53 52 50 49 47 46 45 44 43 42 41 40 39 38 37 36 34 33 31 30 28
65 64 64 64 63 63 62 62 61 60 60 59 58 57 56 55 55 54 52 50 49 48 46 45 43 42 41 40 39 38 37 36 34 33 31 30 29 27
66 65 64 64 63 62 63 62 60 59 59 59 59 58 56 55 54 53 51 49 48 47 46 45 43 41 40 39 38 37 36 34 33 32 31 29 28 27
63 63 63 63 63 63 61 61 60 59 60 61 60 59 58 56 54 52 51 49 46 45 44 43 41 40 39 38 38 36 35 34 33 31 30 29 28 27
60 61 62 62 63 62 61 61 61 60 60 60 59 58 57 55 53 51 49 48 46 45 44 42 40 39 39 38 38 36 34 33 32 31 30 29 28 27
57 58 59 60 61 62 61 60 60 60 59 58 56 55 54 52 52 51 49 47 46 45 43 41 40 40 39 38 37 35 34 33 32 31 30 29 28 27
55 54 55 57 58 59 59 59 59 59 58 56 54 53 53 52 51 50 48 47 45 44 43 41 40 39 38 37 36 34 33 33 32 31 29 29 28 27
52 51 52 53 54 55 56 57 57 56 55 55 53 53 52 51 50 49 47 46 44 44 43 41 39 38 37 37 35 34 33 33 32 31 29 29 28 28
48 48 48 48 48 49 51 52 53 53 53 52 52 51 50 49 48 47 46 45 43 42 41 40 39 38 37 36 35 34 33 32 31 30 30 29 29 29
44 44 45 45 45 46 46 47 48 49 49 49 49 48 47 46 45 45 44 44 43 42 40 38 38 37 36 36 35 34 33 32 31 30 30 30 30 29
39 40 41 41 41 41 42 43 44 45 46 46 46 46 45 45 44 43 43 42 41 40 39 38 37 37 36 35 34 34 33 32 31 30 30 30 30 30
33 34 35 36 36 37 38 40 41 42 42 43 43 43 43 43 42 41 41 41 40 39 38 37 37 36 36 34 34 33 33 32 31 31 31 31 30 30
28 29 30 31 32 33 34 36 37 39 39 40 41 40 40 40 39 39 39 39 38 38 37 36 36 36 35 35 34 33 32 32 31 31 31 31 31 31
Wind_Direction
253 253 253 254 256 256 257 259 261 263 265 266 266 265 265 265 265 267 270 273 276 279 279 278 278 279 281 284 288 291 294 297 300 302 305 306 307 308
254 254 254 255 255 256 257 258 261 263 264 266 266 266 266 268 268 269 271 273 275 277 277 276 276 278 280 283 287 290 293 296 299 301 303 305 306 307
255 256 256 256 256 256 258 258 260 262 263 264 265 266 267 268 269 271 272 273 274 275 275 275 276 277 279 282 285 289 292 295 298 300 302 303 304 305
256 257 257 257 257 258 258 258 259 260 262 263 264 266 266 267 268 271 271 272 271 272 273 274 274 275 278 281 285 288 291 293 296 298 300 303 303 303
257 259 258 257 257 257 258 259 259 261 262 262 263 264 265 266 267 268 269 269 269 269 271 271 272 274 276 279 283 286 289 292 295 297 299 301 301 301
258 259 258 258 257 258 259 259 260 261 262 262 262 263 264 265 266 267 268 267 267 267 269 269 271 273 275 277 280 284 288 291 294 295 298 299 299 299
259 259 259 259 259 259 259 260 261 262 262 262 262 263 263 263 264 265 265 265 265 266 267 268 270 272 274 276 279 282 286 290 291 293 296 297 296 296
260 259 259 259 259 259 259 261 262 261 262 261 261 261 261 261 261 261 263 263 263 264 265 267 269 270 271 274 277 281 285 288 290 292 294 294 294 293
261 260 259 259 259 259 259 260 260 260 260 260 260 260 259 258 258 258 258 259 260 262 263 265 266 267 270 273 276 280 284 286 288 290 292 291 290 289
262 261 261 261 261 260 259 259 259 259 259 259 258 258 256 255 254 254 254 256 258 260 261 263 264 267 270 273 276 279 282 283 285 287 288 287 286 284
263 262 261 261 261 260 259 258 257 256 256 256 255 253 253 253 253 253 253 256 257 259 261 262 264 266 269 272 274 276 279 281 282 283 284 284 283 281
262 261 260 260 259 258 257 257 256 255 254 252 252 252 252 252 252 252 254 254 257 259 261 261 263 266 268 269 271 273 276 277 278 279 280 280 278 277
262 261 259 258 257 256 256 256 255 253 251 251 251 251 251 251 250 251 254 255 256 258 258 260 262 264 265 267 269 271 273 274 275 275 275 275 274 273
261 259 258 256 255 254 254 253 251 251 250 250 250 250 250 251 251 252 253 253 254 255 257 258 261 262 263 265 267 269 270 271 271 271 271 271 270 270
262 259 257 255 254 254 253 252 250 249 249 249 249 248 248 249 248 250 251 252 253 255 256 258 259 260 261 262 264 266 267 268 268 268 267 266 266 266
263 261 258 255 254 254 252 251 249 249 248 248 248 248 247 247 248 249 251 250 251 253 254 256 257 258 259 260 261 263 264 264 264 264 264 263 262 262
263 261 259 256 254 253 252 250 248 247 247 246 246 245 245 246 246 247 247 247 248 250 252 254 255 256 256 257 258 260 261 261 261 261 260 260 259 259
262 260 258 256 254 253 251 249 248 247 245 244 243 242 243 244 245 245 245 245 247 247 249 251 253 254 254 254 256 257 258 258 258 257 257 257 257 257
262 259 257 255 253 252 250 247 245 243 242 241 241 240 241 242 242 243 243 243 245 246 247 249 251 251 251 252 253 254 255 255 255 255 255 255 256 256
263 259 256 254 252 250 248 245 242 239 238 238 238 237 237 238 239 240 241 242 244 244 245 247 248 247 248 249 250 252 253 253 253 253 254 254 255 255
263 259 256 254 251 249 245 242 239 237 236 235 235 236 235 236 237 238 240 241 241 242 243 245 245 246 247 248 248 250 251 251 251 252 252 253 254 254
265 258 254 251 248 245 241 237 235 234 234 233 233 233 233 233 235 236 237 238 238 239 241 242 243 245 245 246 247 248 249 250 250 251 251 252 253 253
264 257 251 247 244 241 237 235 232 231 230 230 229 230 231 231 231 232 233 234 235 236 238 241 242 243 244 245 246 247 247 248 249 250 251 251 253 254
Height
5698 5700 5702 5704 5706 5708 5710 5712 5714 5715 5718 5719 5720 5721 5721 5722 5723 5724 5724 5725 5725 5725 5725 5724 5724 5723 5723 5722 5720 5719 5717 5715 5713 5710 5707 5704 5701 5697
5686 5688 5690 5692 5694 5696 5698 5700 5702 5704 5706 5708 5708 5709 5710 5711 5712 5712 5713 5713 5713 5713 5714 5713 5713 5713 5712 5712 5711 5709 5707 5706 5703 5701 5698 5695 5692 5689
5674 5676 5678 5680 5681 5683 5685 5687 5689 5691 5693 5695 5696 5697 5698 5699 5700 5700 5701 5702 5702 5702 5702 5702 5702 5702 5702 5701 5700 5699 5697 5696 5694 5691 5688 5686 5683 5680
5661 5662 5664 5666 5668 5670 5672 5674 5676 5677 5679 5681 5683 5684 5685 5686 5687 5688 5688 5689 5689 5690 5690 5691 5691 5691 5691 5691 5690 5689 5688 5686 5684 5682 5679 5677 5674 5671
5647 5649 5651 5652 5654 5656 5657 5659 5661 5663 5664 5666 5668 5670 5671 5672 5673 5674 5675 5676 5676 5677 5678 5679 5679 5680 5680 5680 5679 5679 5678 5676 5675 5672 5670 5668 5665 5663
5633 5635 5637 5638 5640 5641 5643 5645 5646 5647 5649 5651 5653 5655 5656 5658 5659 5660 5662 5663 5664 5665 5665 5667 5668 5668 5668 5668 5668 5668 5667 5666 5664 5663 5661 5659 5657 5654
5617 5619 5621 5622 5624 5625 5627 5629 5630 5632 5633 5634 5637 5639 5641 5643 5645 5646 5648 5649 5650 5651 5653 5655 5656 5657 5657 5657 5657 5657 5656 5656 5654 5653 5651 5650 5648 5645
5601 5603 5604 5605 5607 5608 5610 5611 5613 5615 5617 5618 5620 5622 5625 5628 5630 5631 5633 5635 5637 5639 5640 5642 5644 5645 5645 5646 5646 5646 5646 5645 5645 5643 5642 5640 5639 5637
5584 5585 5586 5587 5588 5590 5591 5593 5595 5597 5599 5601 5603 5606 5609 5612 5614 5616 5618 5621 5623 5625 5627 5629 5631 5633 5634 5634 5635 5635 5635 5635 5634 5633 5632 5631 5630 5629
5564 5565 5567 5568 5569 5570 5572 5574 5576 5578 5581 5583 5586 5589 5591 5594 5598 5601 5604 5607 5609 5611 5614 5617 5619 5621 5622 5623 5624 5625 5624 5624 5624 5624 5623 5622 5621 5621
5543 5544 5545 5547 5549 5550 5552 5555 5558 5560 5562 5565 5568 5571 5575 5578 5582 5586 5589 5592 5596 5598 5601 5604 5606 5608 5610 5612 5613 5613 5614 5614 5614 5614 5613 5613 5613 5613
5522 5522 5524 5526 5528 5529 5531 5535 5538 5541 5544 5547 5551 5555 5559 5563 5567 5571 5574 5578 5582 5585 5588 5591 5593 5596 5598 5600 5601 5602 5603 5603 5604 5604 5604 5604 5604 5604
5498 5500 5502 5503 5506 5509 5511 5515 5519 5522 5525 5529 5533 5538 5542 5547 5551 5555 5559 5564 5568 5572 5575 5578 5581 5583 5586 5588 5589 5591 5592 5593 5593 5594 5594 5595 5595 5596
5474 5476 5479 5481 5484 5488 5491 5494 5498 5502 5506 5511 5516 5521 5526 5531 5536 5540 5545 5549 5554 5558 5562 5565 5568 5571 5574 5576 5578 5580 5581 5582 5583 5584 5585 5585 5586 5587
5451 5453 5456 5458 5462 5466 5470 5474 5478 5482 5487 5493 5498 5504 5509 5515 5520 5525 5530 5535 5539 5544 5548 5552 5555 5559 5562 5564 5566 5568 5570 5571 5573 5574 5575 5576 5577 5578
5429 5432 5434 5437 5441 5445 5449 5454 5459 5464 5470 5476 5481 5487 5492 5498 5504 5510 5515 5520 5526 5530 5535 5539 5543 5546 5549 5552 5555 5557 5559 5561 5563 5564 5565 5567 5568 5570
5409 5412 5415 5418 5421 5425 5430 5435 5440 5446 5452 5459 5465 5471 5477 5483 5489 5495 5501 5506 5512 5517 5522 5526 5530 5534 5537 5540 5543 5546 5548 5550 5552 5554 5556 5557 5559 5561
5390 5393 5396 5399 5403 5407 5412 5417 5422 5429 5435 5442 5448 5455 5462 5468 5474 5481 5487 5493 5499 5504 5509 5514 5518 5522 5526 5529 5532 5535 5537 5540 5542 5544 5546 5548 5550 5551
5372 5375 5379 5382 5386 5390 5395 5400 5406 5412 5419 5426 5433 5440 5447 5454 5461 5467 5474 5480 5486 5492 5497 5502 5506 5510 5514 5518 5521 5524 5527 5529 5531 5534 5536 5538 5540 5542
5357 5359 5362 5366 5370 5374 5379 5384 5390 5396 5403 5411 5418 5426 5433 5440 5447 5454 5461 5467 5473 5479 5485 5490 5495 5499 5502 5506 5510 5513 5516 5519 5521 5524 5526 5528 5530 5532
5342 5345 5348 5351 5355 5359 5364 5370 5376 5383 5390 5398 5405 5413 5420 5428 5435 5442 5449 5455 5461 5467 5473 5478 5482 5487 5491 5495 5499 5502 5505 5508 5511 5513 5516 5518 5520 5523
5330 5332 5335 5338 5342 5346 5352 5357 5364 5371 5378 5386 5394 5401 5409 5416 5423 5430 5437 5443 5450 5456 5461 5466 5471 5476 5481 5485 5488 5491 5495 5498 5500 5503 5505 5508 5510 5512
5319 5321 5324 5327 5331 5336 5341 5347 5354 5361 5368 5375 5383 5391 5398 5405 5412 5419 5426 5432 5438 5444 5450 5456 5461 5466 5470 5474 5477 5481 5484 5487 5490 5493 5495 5498 5500 5502